ZHONGXING-2A

Last updated on Mon Oct 14 2024 00:02:39 GMT+0000 (Coordinated Universal Time)

1 38352U 12028A 24287.57314512 -.00000295 00000+0 00000+0 0 9990 2 38352 0.0384 341.7501 0004546 335.4096 10.1930 1.00269545 45249
UTC large
Height (km)
Speed (km/s)
/
Latitude / Longitude
Inclination (degrees)
Orbital Period (minutes)
Azimuth
Elevation
Range (km)
Doppler Factor

Next 0 passes for location: London (51.5072 / 0.1276)

Sorry there are no passes over London.